Wind_Speed
8 9 10 10 11 11 11 11 12 12 12 12 12 12 11 11 12 12 12 13 13 13 13 12 12 12 12 13 13 13 13 13 12 12 13 14 14 14 14 14 15 14 14
9 9 10 10 11 11 12 11 12 12 12 13 12 12 11 11 12 12 11 12 12 12 12 12 12 12 12 12 12 13 14 14 13 14 14 14 14 14 14 14 14 14 14
10 10 11 11 11 12 12 12 13 13 13 13 13 13 13 12 11 11 12 12 12 12 12 12 13 13 13 12 13 13 13 14 14 14 13 13 13 14 14 13 13 13 13
11 11 12 12 12 12 12 13 13 14 14 15 15 14 14 13 12 12 12 12 12 12 12 12 12 13 13 12 12 12 13 13 15 14 14 14 14 14 13 13 13 13 14
12 12 13 13 13 14 14 14 14 14 14 14 14 14 14 14 13 12 13 13 13 12 12 12 13 13 13 13 13 13 13 13 13 14 15 14 14 14 14 14 13 13 14
12 13 13 14 14 15 15 14 14 14 14 14 14 13 13 13 14 13 13 13 13 13 13 12 13 13 13 14 14 13 13 13 13 14 14 14 14 14 14 14 14 14 14
13 14 14 14 15 15 15 15 14 14 14 14 14 14 13 13 13 13 13 13 13 13 13 13 13 13 13 14 14 14 14 14 14 14 14 14 14 14 14 14 14 14 14
14 14 15 15 15 15 15 15 14 14 15 14 14 14 13 13 14 13 14 14 14 14 14 14 13 13 13 13 13 13 13 13 13 13 14 14 15 14 14 14 14 14 14
15 15 15 15 15 15 15 15 15 15 15 15 15 15 14 14 14 14 14 14 14 14 15 14 13 13 13 12 12 13 13 13 12 13 13 14 15 14 14 15 15 15 14
15 15 15 16 16 16 16 15 16 16 16 15 15 15 15 15 14 14 14 14 14 15 15 15 14 14 14 14 13 13 13 13 13 13 13 15 15 15 15 16 16 15 14
15 15 15 16 16 16 16 16 16 17 17 16 15 15 15 15 15 15 15 16 15 15 15 15 14 14 14 14 14 14 14 13 14 14 14 14 14 15 15 16 16 16 16
15 15 15 15 16 17 17 17 17 17 17 16 16 16 16 16 16 16 16 16 16 16 16 15 15 15 15 15 14 15 15 14 14 14 13 14 14 14 15 16 16 16 17
16 15 16 16 16 17 17 17 17 17 17 17 17 17 17 17 16 17 17 17 17 17 17 16 16 15 16 15 15 15 15 15 15 14 14 14 14 15 15 16 17 17 17
16 16 16 16 17 17 16 16 17 17 18 18 18 18 18 18 17 18 18 18 17 17 17 17 16 16 16 16 16 16 16 16 16 16 16 16 15 15 16 16 17 17 18
17 17 17 17 17 17 17 17 18 18 18 18 19 19 19 20 19 19 19 19 18 18 17 17 17 17 17 17 17 17 16 17 17 17 17 17 17 17 16 17 17 17 18
17 18 18 18 18 18 18 18 18 19 19 19 20 20 21 20 20 20 20 19 20 19 19 20 19 18 18 18 18 18 17 17 17 17 18 18 18 18 18 18 18 18 18
18 18 19 19 19 19 19 19 19 19 20 20 20 20 20 20 20 20 20 20 20 20 20 20 21 20 19 19 19 19 19 19 19 19 20 19 19 19 19 19 20 20 20
20 19 20 20 20 20 20 20 20 21 20 20 20 21 21 21 21 21 21 20 21 22 21 21 21 21 21 21 20 20 20 20 21 21 21 21 21 21 21 21 21 21 21
21 21 21 21 21 21 21 21 21 21 21 21 21 21 22 22 22 22 23 22 22 23 23 22 23 23 22 23 22 22 22 21 22 22 22 22 22 22 22 22 22 23 23
22 22 22 22 22 22 22 22 23 23 22 22 23 24 24 24 24 24 24 23 23 23 23 23 24 25 24 24 24 23 23 23 23 23 24 24 23 24 25 25 25 25 25
24 24 24 24 24 24 24 24 24 24 24 23 24 24 25 26 26 25 24 24 25 25 25 24 24 25 25 25 25 25 25 25 25 25 25 25 25 25 25 26 26 26 26
26 25 25 25 25 25 25 25 25 25 24 25 25 25 26 26 26 26 26 26 27 27 27 26 26 26 26 26 26 26 26 25 25 26 26 26 26 26 26 26 27 27 27
27 26 26 26 26 26 26 26 26 26 25 25 25 25 25 26 26 27 27 27 27 28 29 28 27 27 26 27 27 27 27 27 27 27 27 28 28 27 27 27 28 28 28
28 28 27 27 27 27 27 27 27 27 27 26 26 26 25 26 27 28 29 28 27 27 29 30 29 28 27 27 28 29 29 29 29 29 29 28 28 28 28 28 28 29 29
29 28 28 27 27 27 27 27 28 27 27 27 27 27 27 28 28 29 30 30 30 30 30 30 30 29 28 28 29 30 30 30 30 30 30 29 29 29 29 29 30 30 31
30 29 29 28 28 28 27 28 28 29 29 29 29 30 30 29 29 30 30 31 31 31 31 31 32 31 31 30 29 30 31 31 30 30 30 30 30 30 31 31 32 32 32
Wind_Direction
291 291 291 293 290 287 285 282 280 280 279 277 277 280 278 277 275 276 276 275 275 273 272 268 267 267 267 266 265 268 267 267 264 259 257 256 258 257 257 257 254 254 253
291 291 293 291 290 289 287 284 283 280 280 276 274 275 278 273 272 273 274 276 275 275 272 268 267 268 267 264 266 267 267 265 263 260 258 257 255 258 257 257 256 255 252
288 288 288 291 290 290 289 285 282 281 279 276 271 270 275 274 272 273 275 274 274 272 272 270 268 267 265 265 267 268 266 263 262 260 259 256 254 256 257 260 260 258 255
289 288 287 288 287 288 288 288 285 281 278 275 273 271 274 274 274 272 273 272 271 270 271 270 268 267 267 271 271 268 267 263 260 257 257 257 255 255 257 261 258 255 252
292 291 290 289 288 288 288 289 290 287 279 275 274 274 274 274 272 272 272 272 270 269 269 270 268 267 268 272 272 271 267 264 263 259 257 258 259 257 256 256 256 256 256
291 290 289 288 289 288 288 290 290 286 281 278 277 275 274 273 269 269 269 269 269 269 268 270 269 267 269 270 272 272 268 266 265 262 259 258 258 258 255 252 252 253 255
291 290 289 287 287 287 287 288 287 285 283 281 278 275 272 270 269 268 268 267 268 268 269 271 272 273 273 273 272 272 271 267 266 261 258 257 257 255 254 252 250 251 254
292 290 288 287 285 286 285 283 285 284 283 281 279 276 274 272 271 269 268 268 267 268 270 272 271 272 273 272 274 275 274 269 267 262 258 257 258 257 255 255 250 249 251
289 287 286 286 286 285 282 281 283 283 283 281 278 274 272 271 271 270 269 268 267 268 270 273 273 272 270 272 275 275 274 272 271 267 262 260 258 259 259 256 253 252 252
290 288 286 287 287 286 285 285 286 284 284 280 276 275 273 271 268 266 267 267 268 268 269 271 273 271 270 271 271 272 272 271 271 270 266 261 260 259 257 255 256 255 252
289 288 288 288 288 288 287 286 287 285 282 277 274 273 272 272 269 264 263 265 266 266 268 271 271 269 270 270 270 272 272 272 270 269 267 265 261 258 255 254 254 255 253
288 287 287 288 289 289 287 288 288 285 281 276 274 272 270 271 269 265 264 264 264 266 269 269 269 267 268 270 271 272 272 269 268 268 265 262 261 261 258 256 255 254 255
288 287 287 288 290 290 288 286 288 288 282 276 272 270 269 269 268 266 265 263 263 265 266 267 267 267 268 270 271 272 271 267 267 266 263 261 262 262 261 258 257 256 257
287 286 287 288 289 289 288 285 285 286 283 276 270 267 267 267 267 266 266 263 261 263 264 264 265 268 269 270 270 271 270 268 267 267 264 262 263 265 262 259 257 256 256
285 284 286 287 287 287 287 287 287 285 282 277 270 268 266 265 266 265 266 264 262 262 264 265 265 266 267 268 269 270 270 268 267 266 264 264 263 265 263 261 259 258 258
285 285 285 286 285 286 286 287 287 284 282 278 273 269 267 265 265 265 265 264 262 264 265 264 265 267 268 269 269 269 269 268 267 266 266 265 264 265 264 263 262 260 259
286 286 284 283 283 284 287 288 286 283 281 279 276 271 266 266 266 266 266 264 262 262 265 264 265 267 268 269 269 268 269 268 267 267 266 265 265 265 264 263 263 262 261
284 284 283 281 281 283 286 286 284 282 280 279 276 272 267 265 265 268 266 264 263 260 262 263 265 266 266 268 268 268 269 269 268 268 267 265 265 264 263 264 264 263 262
284 283 283 282 280 281 284 286 283 282 279 278 275 272 269 267 266 267 268 266 264 263 263 263 264 266 266 267 268 270 270 271 270 267 266 265 264 264 263 264 264 264 264
283 282 283 282 280 279 280 283 282 282 280 277 274 272 269 267 266 265 267 267 265 263 263 264 264 265 266 267 268 269 269 270 270 268 265 264 265 264 264 264 264 265 265
283 282 281 281 280 279 279 280 281 280 278 277 275 272 270 269 266 264 266 266 266 264 264 264 265 266 265 266 267 268 268 268 268 267 267 264 264 265 265 265 264 265 266
284 283 281 279 278 279 279 278 279 277 276 276 275 274 271 270 268 265 265 266 266 266 266 265 265 266 266 266 266 267 268 267 268 268 268 267 266 265 265 266 266 266 267
283 283 282 279 277 277 278 276 276 275 274 274 273 272 271 270 268 268 267 267 266 267 268 267 266 266 267 266 267 268 267 268 268 269 269 268 267 266 266 266 267 266 266
285 284 282 280 279 278 276 274 275 274 273 273 273 273 272 271 270 269 268 268 267 268 269 269 268 267 267 267 267 267 267 267 268 268 270 268 267 266 265 265 266 266 267
286 284 283 281 281 279 276 275 275 276 273 272 272 272 272 272 271 270 269 268 268 268 268 269 271 269 270 269 268 268 267 267 267 268 269 269 268 267 267 267 267 266 267
284 283 281 281 280 279 277 275 274 275 275 273 272 271 271 272 272 271 271 271 270 269 268 269 269 270 271 271 271 270 269 268 269 269 270 271 269 269 268 267 267 267 267
Height
5846 5845 5845 5845 5844 5843 5843 5842 5842 5841 5841 5841 5840 5840 5840 5840 5839 5839 5839 5839 5839 5839 5839 5839 5839 5840 5840 5840 5840 5840 5840 5840 5839 5839 5840 5841 5842 5843 5844 5844 5845 5846 5847
5844 5843 5843 5842 5842 5841 5840 5840 5839 5839 5838 5838 5837 5837 5836 5836 5836 5836 5836 5837 5836 5836 5836 5836 5836 5837 5837 5837 5837 5837 5837 5837 5837 5837 5837 5838 5839 5840 5841 5841 5842 5842 5843
5841 5841 5840 5840 5839 5838 5837 5837 5836 5836 5835 5834 5834 5834 5833 5833 5833 5833 5833 5834 5834 5833 5833 5833 5833 5833 5833 5833 5833 5834 5834 5834 5834 5834 5834 5835 5836 5837 5838 5838 5839 5839 5840
5839 5838 5838 5837 5836 5836 5835 5834 5833 5833 5832 5831 5831 5830 5830 5831 5831 5830 5831 5831 5831 5831 5830 5830 5830 5830 5830 5830 5830 5830 5830 5830 5831 5831 5831 5832 5833 5834 5834 5835 5835 5836 5837
5836 5835 5835 5834 5833 5833 5832 5831 5830 5829 5829 5828 5827 5827 5827 5827 5827 5827 5828 5827 5827 5827 5827 5827 5827 5827 5827 5827 5827 5827 5827 5827 5827 5828 5828 5829 5830 5830 5831 5832 5832 5833 5833
5833 5832 5831 5831 5830 5829 5828 5827 5826 5826 5825 5824 5824 5823 5823 5823 5823 5824 5824 5824 5824 5824 5824 5824 5824 5824 5824 5824 5824 5824 5824 5824 5824 5825 5825 5826 5827 5827 5828 5829 5829 5830 5831
5830 5829 5828 5827 5826 5825 5824 5824 5823 5822 5821 5821 5820 5820 5820 5819 5820 5820 5820 5820 5820 5820 5821 5821 5821 5821 5821 5821 5821 5821 5821 5821 5821 5822 5822 5823 5823 5824 5824 5825 5826 5827 5828
5826 5825 5824 5823 5822 5821 5820 5820 5819 5818 5817 5817 5816 5816 5816 5816 5816 5816 5816 5816 5817 5817 5817 5817 5817 5817 5818 5818 5818 5817 5817 5818 5818 5818 5819 5819 5820 5820 5821 5822 5823 5824 5825
5822 5821 5820 5819 5818 5817 5816 5815 5815 5814 5813 5812 5812 5812 5812 5812 5812 5812 5812 5812 5813 5813 5813 5814 5814 5814 5814 5814 5814 5814 5814 5814 5815 5815 5815 5816 5816 5817 5818 5819 5819 5820 5821
5818 5817 5816 5814 5813 5812 5811 5811 5810 5809 5809 5808 5807 5807 5808 5808 5808 5808 5808 5808 5809 5809 5809 5810 5810 5810 5810 5810 5811 5811 5811 5811 5811 5811 5811 5812 5812 5813 5814 5815 5816 5816 5817
5813 5812 5811 5810 5808 5807 5807 5806 5805 5804 5804 5803 5803 5803 5803 5803 5803 5803 5804 5804 5804 5805 5805 5805 5806 5806 5806 5806 5807 5807 5807 5807 5807 5807 5807 5807 5808 5809 5809 5810 5811 5812 5813
5809 5808 5806 5805 5804 5803 5802 5801 5800 5799 5798 5798 5798 5798 5798 5798 5799 5799 5799 5799 5800 5800 5800 5801 5801 5802 5802 5802 5802 5802 5802 5802 5802 5802 5803 5803 5804 5804 5805 5806 5807 5808 5809
5804 5803 5802 5801 5799 5798 5797 5796 5795 5794 5793 5793 5793 5793 5793 5793 5793 5794 5794 5794 5795 5795 5796 5796 5796 5797 5797 5797 5798 5798 5798 5798 5798 5798 5798 5799 5800 5800 5801 5801 5802 5803 5804
5800 5798 5797 5796 5794 5793 5792 5791 5790 5789 5788 5787 5787 5787 5787 5788 5788 5788 5789 5789 5790 5790 5790 5791 5791 5792 5792 5792 5792 5793 5793 5793 5793 5793 5793 5794 5795 5795 5796 5797 5797 5798 5799
5795 5793 5792 5791 5790 5788 5787 5786 5784 5783 5782 5782 5782 5782 5782 5782 5782 5783 5783 5783 5784 5785 5786 5786 5786 5786 5786 5787 5787 5787 5787 5788 5788 5788 5789 5789 5790 5790 5791 5792 5792 5793 5794
5790 5788 5787 5786 5784 5783 5782 5780 5779 5778 5777 5776 5775 5775 5775 5776 5776 5777 5777 5778 5778 5779 5780 5780 5781 5781 5781 5782 5782 5782 5782 5783 5783 5783 5784 5784 5785 5785 5786 5787 5787 5788 5789
5784 5783 5782 5780 5779 5778 5776 5775 5774 5772 5771 5770 5769 5769 5769 5770 5770 5770 5771 5771 5772 5773 5773 5774 5775 5775 5776 5776 5776 5776 5777 5777 5777 5778 5778 5779 5779 5780 5780 5781 5782 5782 5783
5779 5777 5776 5775 5773 5772 5771 5769 5768 5766 5765 5764 5764 5763 5763 5764 5764 5764 5765 5765 5766 5767 5767 5768 5769 5769 5770 5770 5770 5771 5771 5771 5771 5772 5772 5773 5773 5774 5774 5775 5776 5776 5777
5773 5771 5770 5768 5767 5766 5765 5763 5761 5760 5759 5758 5758 5758 5758 5758 5758 5758 5758 5759 5760 5760 5761 5762 5762 5763 5763 5764 5764 5764 5764 5765 5765 5765 5766 5766 5766 5767 5768 5768 5769 5770 5770
5766 5765 5763 5762 5760 5759 5758 5757 5755 5754 5753 5752 5751 5751 5751 5751 5751 5752 5752 5752 5753 5754 5754 5755 5756 5756 5756 5757 5757 5757 5758 5758 5758 5759 5759 5759 5760 5760 5761 5761 5762 5762 5763
5760 5758 5756 5755 5754 5752 5751 5750 5748 5747 5746 5745 5745 5744 5744 5744 5744 5744 5745 5745 5746 5746 5747 5748 5748 5749 5749 5749 5750 5750 5751 5751 5751 5751 5752 5752 5752 5753 5753 5754 5754 5755 5755
5752 5750 5748 5747 5746 5745 5743 5742 5741 5740 5739 5738 5738 5737 5737 5737 5737 5737 5737 5738 5739 5739 5739 5740 5741 5741 5741 5742 5742 5743 5743 5743 5744 5744 5744 5744 5745 5745 5745 5746 5746 5747 5748
5743 5742 5740 5739 5737 5736 5735 5734 5733 5732 5732 5731 5731 5730 5730 5729 5729 5730 5730 5730 5731 5731 5732 5732 5733 5733 5733 5734 5735 5735 5735 5735 5736 5736 5736 5736 5736 5737 5737 5738 5738 5739 5739
5735 5733 5731 5730 5728 5727 5726 5725 5724 5724 5724 5723 5723 5722 5722 5722 5722 5722 5722 5722 5723 5723 5724 5724 5725 5725 5725 5725 5726 5726 5726 5727 5727 5727 5727 5727 5727 5728 5729 5729 5730 5730 5731
5726 5724 5723 5721 5720 5718 5717 5717 5716 5716 5716 5715 5715 5714 5714 5714 5714 5713 5714 5714 5715 5715 5715 5716 5716 5716 5717 5717 5717 5717 5717 5717 5718 5718 5718 5718 5719 5719 5720 5720 5720 5721 5721
5717 5716 5714 5713 5711 5710 5709 5709 5708 5707 5707 5706 5706 5706 5706 5706 5705 5705 5705 5706 5706 5706 5707 5707 5707 5707 5708 5708 5708 5708 5708 5708 5708 5709 5709 5709 5709 5710 5710 5711 5711 5711 5712